| time (UTC) | temp F | wind direction | speed MPH | gust MPH | rain 1hr in | rain 24hr in | rain mn in | humidity % | barometer mb |
| 20260508125514 | 53 | 333 | 1.0 | 11.0 | 0.01 | 0.02 | 0.02 | 72 | 1020.3 |
| 20260508125012 | 53 | 319 | 1.0 | 11.0 | 0.00 | 0.01 | 0.01 | 71 | 1020.3 |
| 20260508124516 | 53 | 318 | 10.0 | 11.0 | 0.00 | 0.01 | 0.01 | 72 | 1020.3 |
| 20260508124011 | 53 | 312 | 11.0 | 11.0 | 0.00 | 0.01 | 0.01 | 72 | 1020.3 |
| 20260508123514 | 52 | 325 | 3.0 | 13.0 | 0.00 | 0.01 | 0.01 | 74 | 1020.3 |
| 20260508123011 | 52 | 309 | 3.0 | 16.0 | 0.00 | 0.01 | 0.01 | 75 | 1020.3 |
| 20260508122515 | 52 | 309 | 0.0 | 16.0 | 0.00 | 0.01 | 0.01 | 75 | 1020.3 |
| 20260508122011 | 51 | 330 | 2.0 | 16.0 | 0.00 | 0.01 | 0.01 | 76 | 1020.3 |
| 20260508121535 | 51 | 307 | 4.0 | 13.0 | 0.00 | 0.01 | 0.01 | 78 | 1020.3 |
| 20260508121010 | 50 | 328 | 0.0 | 13.0 | 0.00 | 0.01 | 0.01 | 79 | 1020.0 |
| 20260508120514 | 50 | 269 | 2.0 | 13.0 | 0.00 | 0.01 | 0.01 | 80 | 1019.9 |
| 20260508120010 | 49 | 325 | 5.0 | 13.0 | 0.00 | 0.01 | 0.01 | 81 | 1019.9 |
| 20260508115511 | 48 | 323 | 6.0 | 10.0 | 0.00 | 0.01 | 0.01 | 83 | 1019.9 |
| 20260508115011 | 47 | 311 | 0.0 | 9.0 | 0.00 | 0.01 | 0.01 | 85 | 1019.8 |
| 20260508114510 | 47 | 225 | 0.0 | 1.0 | 0.00 | 0.01 | 0.01 | 87 | 1019.8 |
| 20260508114013 | 47 | 225 | 0.0 | 1.0 | 0.00 | 0.01 | 0.01 | 88 | 1019.8 |
| 20260508113509 | 46 | 225 | 0.0 | 1.0 | 0.00 | 0.01 | 0.01 | 89 | 1019.7 |
| 20260508113013 | 46 | 208 | 0.0 | 0.0 | 0.00 | 0.01 | 0.01 | 90 | 1019.8 |
| 20260508112509 | 45 | 208 | 0.0 | 2.0 | 0.00 | 0.01 | 0.01 | 91 | 1019.7 |
| 20260508112011 | 45 | 208 | 0.0 | 2.0 | 0.00 | 0.01 | 0.01 | 92 | 1019.8 |
| 20260508111509 | 44 | 208 | 0.0 | 2.0 | 0.00 | 0.01 | 0.01 | 92 | 1019.8 |
| 20260508111012 | 44 | 205 | 0.0 | 0.0 | 0.00 | 0.01 | 0.01 | 93 | 1019.7 |
| 20260508110509 | 44 | 205 | 0.0 | 0.0 | 0.00 | 0.01 | 0.01 | 93 | 1019.7 |
| 20260508110010 | 44 | 205 | 0.0 | 0.0 | 0.00 | 0.01 | 0.01 | 93 | 1019.6 |
| 20260508105508 | 44 | 205 | 0.0 | 1.0 | 0.00 | 0.01 | 0.01 | 93 | 1019.6 |
| 20260508105009 | 45 | 205 | 0.0 | 1.0 | 0.00 | 0.01 | 0.01 | 93 | 1019.6 |
| 20260508104508 | 45 | 205 | 0.0 | 1.0 | 0.01 | 0.01 | 0.01 | 93 | 1019.6 |
| 20260508104007 | 45 | 228 | 0.0 | 0.0 | 0.01 | 0.01 | 0.01 | 93 | 1019.6 |
| 20260508103511 | 45 | 228 | 0.0 | 0.0 | 0.01 | 0.01 | 0.01 | 93 | 1019.6 |
| 20260508103007 | 45 | 228 | 0.0 | 0.0 | 0.01 | 0.01 | 0.01 | 92 | 1019.6 |
| 20260508102526 | 45 | 228 | 0.0 | 0.0 | 0.01 | 0.01 | 0.01 | 92 | 1019.7 |
| 20260508102007 | 45 | 228 | 0.0 | 0.0 | 0.01 | 0.01 | 0.01 | 93 | 1019.7 |
| 20260508101510 | 45 | 228 | 0.0 | 2.0 | 0.01 | 0.01 | 0.01 | 91 | 1019.6 |
| 20260508101007 | 46 | 228 | 0.0 | 3.0 | 0.01 | 0.01 | 0.01 | 91 | 1019.5 |
| 20260508100507 | 46 | 228 | 0.0 | 6.0 | 0.01 | 0.01 | 0.01 | 91 | 1019.5 |
| 20260508100008 | 46 | 200 | 0.0 | 6.0 | 0.01 | 0.01 | 0.01 | 91 | 1019.5 |
| 20260508095507 | 46 | 205 | 1.0 | 7.0 | 0.01 | 0.01 | 0.01 | 90 | 1019.5 |
| 20260508095024 | 46 | 229 | 2.0 | 7.0 | 0.01 | 0.01 | 0.01 | 89 | 1019.8 |
| 20260508094506 | 46 | 322 | 3.0 | 7.0 | 0.00 | 0.00 | 0.00 | 89 | 1020.5 |
| 20260508094009 | 46 | 322 | 0.0 | 0.0 | 0.00 | 0.00 | 0.00 | 88 | 1019.6 |
| 20260508093505 | 45 | 322 | 0.0 | 0.0 | 0.00 | 0.00 | 0.00 | 88 | 1019.6 |
| 20260508093010 | 46 | 322 | 0.0 | 0.0 | 0.00 | 0.00 | 0.00 | 88 | 1019.6 |
| 20260508092506 | 46 | 322 | 0.0 | 0.0 | 0.00 | 0.00 | 0.00 | 88 | 1019.6 |
| 20260508092022 | 46 | 322 | 0.0 | 0.0 | 0.00 | 0.00 | 0.00 | 87 | 1019.6 |
| 20260508091520 | 46 | 322 | 0.0 | 0.0 | 0.00 | 0.00 | 0.00 | 87 | 1019.6 |
| 20260508091014 | 47 | 322 | 0.0 | 0.0 | 0.00 | 0.00 | 0.00 | 87 | 1019.6 |
| 20260508090505 | 47 | 322 | 0.0 | 0.0 | 0.00 | 0.00 | 0.00 | 87 | 1019.6 |
| 20260508090035 | 47 | 322 | 0.0 | 2.0 | 0.00 | 0.00 | 0.00 | 87 | 1019.6 |
| 20260508085504 | 47 | 322 | 0.0 | 2.0 | 0.00 | 0.00 | 0.00 | 87 | 1019.6 |
| 20260508085006 | 47 | 322 | 0.0 | 2.0 | 0.00 | 0.00 | 0.00 | 87 | 1019.6 |
| 20260508084505 | 48 | 322 | 0.0 | 0.0 | 0.00 | 0.00 | 0.00 | 86 | 1019.6 |
| 20260508084004 | 48 | 322 | 0.0 | 2.0 | 0.00 | 0.00 | 0.00 | 86 | 1019.8 |
| 20260508083506 | 48 | 322 | 0.0 | 3.0 | 0.00 | 0.00 | 0.00 | 85 | 1019.8 |
| 20260508083004 | 48 | 322 | 0.0 | 3.0 | 0.00 | 0.00 | 0.00 | 84 | 1020.3 |
| 20260508082519 | 48 | 295 | 1.0 | 3.0 | 0.00 | 0.00 | 0.00 | 83 | 1020.3 |
| 20260508082006 | 48 | 304 | 0.0 | 4.0 | 0.00 | 0.00 | 0.00 | 84 | 1019.9 |
| 20260508081504 | 48 | 304 | 0.0 | 8.0 | 0.00 | 0.00 | 0.00 | 84 | 1019.9 |
| 20260508081003 | 48 | 304 | 0.0 | 8.0 | 0.00 | 0.00 | 0.00 | 84 | 1020.3 |
| 20260508080507 | 48 | 305 | 1.0 | 10.0 | 0.00 | 0.00 | 0.00 | 84 | 1020.3 |
| 20260508080003 | 48 | 284 | 0.0 | 10.0 | 0.00 | 0.00 | 0.00 | 85 | 1020.4 |
| 20260508075534 | 48 | 329 | 4.0 | 10.0 | 0.00 | 0.00 | 0.00 | 83 | 1020.5 |
| 20260508075002 | 48 | 333 | 5.0 | 9.0 | 0.00 | 0.00 | 0.00 | 83 | 1020.4 |
| 20260508074506 | 47 | 269 | 0.0 | 9.0 | 0.00 | 0.00 | 0.00 | 83 | 1020.0 |
| 20260508074002 | 47 | 287 | 2.0 | 9.0 | 0.00 | 0.00 | 0.00 | 84 | 1020.0 |
| 20260508073527 | 47 | 269 | 0.0 | 3.0 | 0.00 | 0.00 | 0.00 | 84 | 1020.0 |
| 20260508073002 | 47 | 269 | 0.0 | 6.0 | 0.00 | 0.00 | 0.00 | 84 | 1019.9 |
| 20260508072511 | 47 | 284 | 0.0 | 6.0 | 0.00 | 0.00 | 0.00 | 84 | 1020.0 |
| 20260508072001 | 47 | 204 | 1.0 | 6.0 | 0.00 | 0.00 | 0.00 | 84 | 1020.0 |
| 20260508071526 | 47 | 283 | 0.0 | 4.0 | 0.00 | 0.00 | 0.00 | 84 | 1020.3 |
| 20260508071017 | 47 | 238 | 0.0 | 5.0 | 0.00 | 0.00 | 0.00 | 84 | 1020.4 |
| 20260508070501 | 47 | 238 | 0.0 | 5.0 | 0.00 | 0.00 | 0.00 | 84 | 1020.4 |
| 20260508070018 | 47 | 297 | 0.0 | 2.0 | 0.00 | 0.00 | 0.00 | 84 | 1020.4 |
| 20260508065502 | 47 | 257 | 1.0 | 4.0 | 0.00 | 0.00 | 0.00 | 84 | 1020.5 |
| 20260508065003 | 47 | 297 | 0.0 | 7.0 | 0.00 | 0.00 | 0.00 | 84 | 1020.5 |
| 20260508064530 | 47 | 297 | 0.0 | 7.0 | 0.00 | 0.00 | 0.00 | 84 | 1020.6 |
| 20260508064002 | 47 | 257 | 0.0 | 7.0 | 0.00 | 0.00 | 0.00 | 84 | 1020.6 |
| 20260508063502 | 47 | 270 | 0.0 | 6.0 | 0.00 | 0.00 | 0.00 | 84 | 1020.6 |
| 20260508063030 | 47 | 270 | 0.0 | 6.0 | 0.00 | 0.00 | 0.00 | 84 | 1020.6 |
| 20260508062502 | 47 | 309 | 0.0 | 6.0 | 0.00 | 0.00 | 0.00 | 84 | 1020.7 |
| 20260508062001 | 47 | 288 | 0.0 | 7.0 | 0.00 | 0.00 | 0.00 | 85 | 1020.7 |
| 20260508061530 | 47 | 288 | 0.0 | 9.0 | 0.00 | 0.00 | 0.00 | 85 | 1020.9 |
| 20260508061000 | 47 | 288 | 0.0 | 9.0 | 0.00 | 0.00 | 0.00 | 85 | 1021.1 |
| 20260508060459 | 47 | 271 | 0.0 | 9.0 | 0.00 | 0.00 | 0.00 | 85 | 1021.1 |
| 20260508060030 | 47 | 249 | 0.0 | 4.0 | 0.00 | 0.00 | 0.00 | 84 | 1021.0 |
| 20260508055531 | 48 | 315 | 0.0 | 1.0 | 0.00 | 0.00 | 0.00 | 84 | 1021.0 |
| 20260508055044 | 48 | 316 | 0.0 | 0.0 | 0.00 | 0.00 | 0.00 | 84 | 1020.9 |
| 20260508054528 | 48 | 316 | 0.0 | 0.0 | 0.00 | 0.00 | 0.00 | 83 | 1020.8 |
| 20260508054031 | 48 | 316 | 0.0 | 0.0 | 0.00 | 0.00 | 0.00 | 82 | 1020.8 |
| 20260508053530 | 48 | 316 | 0.0 | 0.0 | 0.00 | 0.00 | 0.00 | 82 | 1020.8 |
| 20260508053028 | 48 | 316 | 0.0 | 0.0 | 0.00 | 0.00 | 0.00 | 82 | 1020.9 |
| 20260508052530 | 48 | 316 | 0.0 | 0.0 | 0.00 | 0.00 | 0.00 | 82 | 1020.9 |
| 20260508052043 | 48 | 316 | 0.0 | 0.0 | 0.00 | 0.00 | 0.00 | 81 | 1020.9 |
| 20260508051528 | 48 | 316 | 0.0 | 0.0 | 0.00 | 0.00 | 0.00 | 80 | 1020.8 |
| 20260508051031 | 48 | 316 | 0.0 | 0.0 | 0.00 | 0.00 | 0.00 | 79 | 1020.8 |
| 20260508050528 | 48 | 316 | 0.0 | 0.0 | 0.00 | 0.00 | 0.00 | 77 | 1020.7 |
| 20260508050043 | 49 | 316 | 0.0 | 0.0 | 0.00 | 0.00 | 0.00 | 77 | 1020.7 |
| 20260508045529 | 49 | 316 | 0.0 | 0.0 | 0.00 | 0.00 | 0.00 | 77 | 1020.7 |
| 20260508045027 | 49 | 316 | 0.0 | 0.0 | 0.00 | 0.00 | 0.00 | 75 | 1020.7 |
| 20260508044533 | 48 | 316 | 0.0 | 0.0 | 0.00 | 0.00 | 0.00 | 74 | 1020.7 |
| 20260508044027 | 49 | 316 | 0.0 | 0.0 | 0.00 | 0.00 | 0.00 | 73 | 1020.7 |
| 20260508043533 | 48 | 316 | 0.0 | 0.0 | 0.00 | 0.00 | 0.00 | 72 | 1020.6 |
| 20260508043026 | 49 | 316 | 0.0 | 0.0 | 0.00 | 0.00 | 0.00 | 72 | 1020.7 |
| 20260508042530 | 49 | 316 | 0.0 | 0.0 | 0.00 | 0.00 | 0.00 | 73 | 1020.8 |
| 20260508042027 | 49 | 316 | 0.0 | 0.0 | 0.00 | 0.00 | 0.00 | 72 | 1020.8 |
| 20260508041526 | 49 | 316 | 0.0 | 0.0 | 0.00 | 0.00 | 0.00 | 73 | 1020.7 |
| 20260508041033 | 49 | 316 | 0.0 | 0.0 | 0.00 | 0.00 | 0.00 | 71 | 1020.7 |
| 20260508040525 | 50 | 316 | 0.0 | 0.0 | 0.00 | 0.00 | 0.00 | 71 | 1020.8 |
| 20260508035525 | 50 | 316 | 0.0 | 0.0 | 0.00 | 0.00 | 0.00 | 70 | 1020.8 |
| 20260508035025 | 50 | 316 | 0.0 | 0.0 | 0.00 | 0.00 | 0.00 | 69 | 1020.9 |
| 20260508034525 | 50 | 316 | 0.0 | 0.0 | 0.00 | 0.00 | 0.00 | 68 | 1021.0 |
| 20260508034026 | 50 | 316 | 0.0 | 0.0 | 0.00 | 0.00 | 0.00 | 67 | 1021.0 |
| 20260508033527 | 50 | 316 | 0.0 | 0.0 | 0.00 | 0.00 | 0.00 | 67 | 1021.0 |
| 20260508033025 | 50 | 316 | 0.0 | 0.0 | 0.00 | 0.00 | 0.00 | 66 | 1021.0 |
| 20260508032525 | 50 | 316 | 0.0 | 0.0 | 0.00 | 0.00 | 0.00 | 66 | 1021.0 |
| 20260508032025 | 50 | 316 | 0.0 | 0.0 | 0.00 | 0.00 | 0.00 | 66 | 1020.9 |
| 20260508031526 | 50 | 316 | 0.0 | 0.0 | 0.00 | 0.00 | 0.00 | 66 | 1021.0 |
| 20260508031025 | 51 | 316 | 0.0 | 6.0 | 0.00 | 0.00 | 0.00 | 66 | 1021.0 |
| 20260508030524 | 51 | 316 | 0.0 | 6.0 | 0.00 | 0.00 | 0.00 | 65 | 1020.9 |
| 20260508030025 | 51 | 316 | 0.0 | 6.0 | 0.00 | 0.00 | 0.00 | 64 | 1021.2 |
| 20260508025526 | 51 | 302 | 0.0 | 0.0 | 0.00 | 0.00 | 0.00 | 64 | 1021.2 |
| 20260508025024 | 51 | 302 | 0.0 | 0.0 | 0.00 | 0.00 | 0.00 | 64 | 1021.2 |
| 20260508024523 | 51 | 302 | 0.0 | 0.0 | 0.00 | 0.00 | 0.00 | 63 | 1021.2 |
| 20260508024024 | 51 | 302 | 0.0 | 0.0 | 0.00 | 0.00 | 0.00 | 64 | 1021.2 |
| 20260508023525 | 51 | 302 | 0.0 | 0.0 | 0.00 | 0.00 | 0.00 | 63 | 1021.2 |
| 20260508023024 | 51 | 302 | 0.0 | 2.0 | 0.00 | 0.00 | 0.00 | 62 | 1021.1 |
| 20260508022523 | 51 | 302 | 0.0 | 7.0 | 0.00 | 0.00 | 0.00 | 62 | 1021.1 |
| 20260508022022 | 51 | 302 | 0.0 | 7.0 | 0.00 | 0.00 | 0.00 | 62 | 1021.0 |
| 20260508021523 | 51 | 323 | 2.0 | 7.0 | 0.00 | 0.00 | 0.00 | 62 | 1021.0 |
| 20260508021023 | 51 | 336 | 1.0 | 4.0 | 0.00 | 0.00 | 0.00 | 62 | 1020.9 |
| 20260508020524 | 51 | 328 | 1.0 | 2.0 | 0.00 | 0.00 | 0.00 | 63 | 1021.0 |
| 20260508020024 | 51 | 308 | 0.0 | 3.0 | 0.00 | 0.00 | 0.00 | 63 | 1021.0 |
| 20260508015523 | 50 | 315 | 0.0 | 3.0 | 0.00 | 0.00 | 0.00 | 63 | 1020.9 |
| 20260508015022 | 50 | 319 | 1.0 | 3.0 | 0.00 | 0.00 | 0.00 | 64 | 1020.9 |
| 20260508014521 | 50 | 322 | 1.0 | 1.0 | 0.00 | 0.00 | 0.00 | 66 | 1020.8 |
| 20260508014022 | 50 | 290 | 0.0 | 1.0 | 0.00 | 0.00 | 0.00 | 66 | 1020.7 |
| 20260508013524 | 50 | 290 | 0.0 | 1.0 | 0.00 | 0.00 | 0.00 | 67 | 1020.6 |
| 20260508013022 | 50 | 316 | 0.0 | 0.0 | 0.00 | 0.00 | 0.00 | 69 | 1020.5 |
| 20260508012521 | 50 | 316 | 0.0 | 0.0 | 0.00 | 0.00 | 0.00 | 71 | 1020.6 |
| 20260508012021 | 50 | 316 | 0.0 | 0.0 | 0.00 | 0.00 | 0.00 | 70 | 1020.5 |
| 20260508011521 | 50 | 316 | 0.0 | 0.0 | 0.00 | 0.00 | 0.00 | 67 | 1020.5 |
| 20260508011021 | 50 | 316 | 0.0 | 0.0 | 0.00 | 0.00 | 0.00 | 67 | 1020.4 |
| 20260508010522 | 50 | 316 | 0.0 | 0.0 | 0.00 | 0.00 | 0.00 | 66 | 1020.4 |
| 20260508010022 | 51 | 316 | 0.0 | 0.0 | 0.00 | 0.00 | 0.00 | 65 | 1020.4 |
| 20260508005521 | 51 | 316 | 0.0 | 0.0 | 0.00 | 0.00 | 0.00 | 65 | 1020.3 |
| 20260508005020 | 51 | 316 | 0.0 | 0.0 | 0.00 | 0.00 | 0.00 | 64 | 1020.3 |
| 20260508004520 | 51 | 316 | 0.0 | 0.0 | 0.00 | 0.00 | 0.00 | 63 | 1020.0 |
| 20260508004019 | 52 | 316 | 0.0 | 0.0 | 0.00 | 0.00 | 0.00 | 62 | 1020.3 |
| 20260508003519 | 52 | 316 | 0.0 | 0.0 | 0.00 | 0.00 | 0.00 | 61 | 1020.0 |
| 20260508003020 | 52 | 316 | 0.0 | 0.0 | 0.00 | 0.00 | 0.00 | 60 | 1020.0 |
| 20260508002520 | 52 | 316 | 0.0 | 0.0 | 0.00 | 0.00 | 0.00 | 58 | 1019.9 |
| 20260508002022 | 52 | 316 | 0.0 | 4.0 | 0.00 | 0.00 | 0.00 | 56 | 1019.9 |
| 20260508001520 | 53 | 316 | 0.0 | 4.0 | 0.00 | 0.00 | 0.00 | 55 | 1019.9 |
| 20260508001019 | 53 | 316 | 0.0 | 4.0 | 0.00 | 0.00 | 0.00 | 55 | 1019.8 |
| 20260508000519 | 53 | 316 | 0.0 | 3.0 | 0.00 | 0.00 | 0.00 | 54 | 1019.8 |
| 20260508000021 | 53 | 316 | 0.0 | 4.0 | 0.00 | 0.00 | 0.00 | 53 | 1019.7 |
| 20260507235520 | 54 | 316 | 0.0 | 5.0 | 0.00 | 0.00 | 0.00 | 52 | 1019.7 |
| 20260507235021 | 54 | 318 | 0.0 | 5.0 | 0.00 | 0.00 | 0.00 | 53 | 1019.7 |
| 20260507234519 | 54 | 308 | 0.0 | 5.0 | 0.00 | 0.00 | 0.00 | 52 | 1019.7 |
| 20260507234018 | 54 | 302 | 0.0 | 10.0 | 0.00 | 0.00 | 0.00 | 52 | 1019.6 |
| 20260507233518 | 54 | 301 | 1.0 | 10.0 | 0.00 | 0.00 | 0.00 | 52 | 1019.6 |
| 20260507233018 | 54 | 328 | 0.0 | 10.0 | 0.00 | 0.00 | 0.00 | 51 | 1019.7 |
| 20260507232518 | 54 | 308 | 4.0 | 7.0 | 0.00 | 0.00 | 0.00 | 53 | 1019.7 |
| 20260507232019 | 55 | 316 | 0.0 | 7.0 | 0.00 | 0.00 | 0.00 | 52 | 1019.7 |
| 20260507231520 | 55 | 321 | 1.0 | 9.0 | 0.00 | 0.00 | 0.00 | 52 | 1019.6 |
| 20260507231019 | 55 | 333 | 6.0 | 9.0 | 0.00 | 0.00 | 0.00 | 53 | 1019.7 |
| 20260507230518 | 54 | 302 | 0.0 | 9.0 | 0.00 | 0.00 | 0.00 | 51 | 1019.7 |
| 20260507230017 | 55 | 314 | 7.0 | 10.0 | 0.00 | 0.00 | 0.00 | 51 | 1019.7 |
| 20260507225516 | 55 | 329 | 0.0 | 10.0 | 0.00 | 0.00 | 0.00 | 52 | 1019.8 |
| 20260507225017 | 55 | 49 | 0.0 | 10.0 | 0.00 | 0.00 | 0.00 | 51 | 1019.8 |
| 20260507224520 | 55 | 301 | 5.0 | 9.0 | 0.00 | 0.00 | 0.00 | 49 | 1019.8 |
| 20260507224018 | 55 | 319 | 5.0 | 11.0 | 0.00 | 0.00 | 0.00 | 49 | 1019.8 |
| 20260507223517 | 55 | 335 | 0.0 | 12.0 | 0.00 | 0.00 | 0.00 | 51 | 1019.9 |
| 20260507223016 | 55 | 340 | 3.0 | 12.0 | 0.00 | 0.00 | 0.00 | 49 | 1019.9 |
| 20260507222516 | 55 | 316 | 6.0 | 13.0 | 0.00 | 0.00 | 0.00 | 49 | 1019.8 |
| 20260507222016 | 55 | 336 | 6.0 | 14.0 | 0.00 | 0.00 | 0.00 | 50 | 1019.9 |
| 20260507221515 | 55 | 328 | 1.0 | 14.0 | 0.00 | 0.00 | 0.00 | 48 | 1019.8 |
| 20260507221016 | 55 | 330 | 2.0 | 13.0 | 0.00 | 0.00 | 0.00 | 49 | 1019.8 |
| 20260507220516 | 55 | 288 | 7.0 | 13.0 | 0.00 | 0.00 | 0.00 | 50 | 1019.8 |
| 20260507220017 | 55 | 302 | 1.0 | 13.0 | 0.00 | 0.00 | 0.00 | 51 | 1019.8 |
| 20260507215516 | 54 | 326 | 6.0 | 13.0 | 0.00 | 0.00 | 0.00 | 51 | 1019.8 |
| 20260507215015 | 54 | 325 | 5.0 | 13.0 | 0.00 | 0.00 | 0.00 | 51 | 1019.7 |
| 20260507214515 | 54 | 325 | 5.0 | 13.0 | 0.00 | 0.00 | 0.00 | 51 | 1019.7 |
| 20260507214014 | 54 | 326 | 11.0 | 10.0 | 0.00 | 0.00 | 0.00 | 51 | 1019.6 |
| 20260507213514 | 55 | 346 | 0.0 | 11.0 | 0.00 | 0.00 | 0.00 | 51 | 1019.6 |
| 20260507213015 | 54 | 335 | 7.0 | 11.0 | 0.00 | 0.00 | 0.00 | 53 | 1019.6 |
| 20260507212517 | 54 | 304 | 1.0 | 11.0 | 0.00 | 0.00 | 0.00 | 51 | 1019.6 |
| 20260507212019 | 54 | 343 | 2.0 | 11.0 | 0.00 | 0.00 | 0.00 | 54 | 1019.7 |
| 20260507211516 | 54 | 339 | 6.0 | 11.0 | 0.00 | 0.00 | 0.00 | 52 | 1019.6 |
| 20260507211013 | 55 | 329 | 2.0 | 11.0 | 0.00 | 0.00 | 0.00 | 52 | 1019.6 |
| 20260507210513 | 55 | 315 | 2.0 | 17.0 | 0.00 | 0.00 | 0.00 | 51 | 1019.6 |
| 20260507210013 | 56 | 305 | 3.0 | 17.0 | 0.00 | 0.00 | 0.00 | 51 | 1019.6 |
| 20260507205513 | 56 | 322 | 7.0 | 17.0 | 0.00 | 0.00 | 0.00 | 50 | 1019.4 |
| 20260507205013 | 55 | 314 | 11.0 | 16.0 | 0.00 | 0.00 | 0.00 | 53 | 1019.5 |
| 20260507204014 | 55 | 321 | 5.0 | 13.0 | 0.00 | 0.00 | 0.00 | 51 | 1019.6 |
| 20260507203513 | 55 | 304 | 0.0 | 13.0 | 0.00 | 0.00 | 0.00 | 54 | 1019.5 |
| 20260507203013 | 55 | 336 | 10.0 | 13.0 | 0.00 | 0.00 | 0.00 | 54 | 1019.6 |
| 20260507202512 | 55 | 315 | 8.0 | 17.0 | 0.00 | 0.00 | 0.00 | 54 | 1019.6 |
| 20260507202012 | 55 | 323 | 9.0 | 17.0 | 0.00 | 0.00 | 0.00 | 53 | 1019.6 |
| 20260507201512 | 55 | 305 | 1.0 | 17.0 | 0.00 | 0.00 | 0.00 | 55 | 1019.4 |
| 20260507201014 | 55 | 326 | 16.0 | 16.0 | 0.00 | 0.00 | 0.00 | 54 | 1019.5 |
| 20260507200512 | 55 | 319 | 4.0 | 13.0 | 0.00 | 0.00 | 0.00 | 54 | 1019.6 |
| 20260507200011 | 55 | 325 | 8.0 | 13.0 | 0.00 | 0.00 | 0.00 | 56 | 1019.6 |
| 20260507195511 | 55 | 312 | 9.0 | 13.0 | 0.00 | 0.00 | 0.00 | 55 | 1019.7 |
| 20260507195011 | 54 | 301 | 5.0 | 17.0 | 0.00 | 0.00 | 0.00 | 57 | 1019.6 |
| 20260507194511 | 54 | 325 | 0.0 | 17.0 | 0.00 | 0.00 | 0.00 | 60 | 1019.6 |
| 20260507194013 | 54 | 308 | 4.0 | 17.0 | 0.00 | 0.00 | 0.00 | 57 | 1019.6 |
| 20260507193512 | 54 | 316 | 1.0 | 12.0 | 0.00 | 0.00 | 0.00 | 60 | 1019.6 |
| 20260507193012 | 54 | 328 | 6.0 | 13.0 | 0.00 | 0.00 | 0.00 | 56 | 1019.7 |
| 20260507192511 | 54 | 359 | 4.0 | 13.0 | 0.00 | 0.00 | 0.00 | 57 | 1019.8 |
| 20260507192010 | 54 | 325 | 6.0 | 14.0 | 0.00 | 0.00 | 0.00 | 59 | 1019.8 |
| 20260507191510 | 54 | 319 | 5.0 | 14.0 | 0.00 | 0.00 | 0.00 | 61 | 1019.9 |
| 20260507191010 | 54 | 316 | 4.0 | 14.0 | 0.00 | 0.00 | 0.00 | 60 | 1019.8 |
| 20260507190511 | 54 | 311 | 7.0 | 12.0 | 0.00 | 0.00 | 0.00 | 62 | 1019.8 |
| 20260507190012 | 54 | 328 | 3.0 | 16.0 | 0.00 | 0.00 | 0.00 | 59 | 1019.8 |
| 20260507185512 | 53 | 346 | 3.0 | 16.0 | 0.00 | 0.00 | 0.00 | 59 | 1019.9 |
| 20260507185011 | 54 | 311 | 4.0 | 17.0 | 0.00 | 0.00 | 0.00 | 58 | 1020.0 |
| 20260507184510 | 55 | 280 | 2.0 | 17.0 | 0.00 | 0.00 | 0.00 | 59 | 1020.0 |
| 20260507184009 | 55 | 322 | 12.0 | 17.0 | 0.00 | 0.00 | 0.00 | 59 | 1020.0 |
| 20260507183509 | 55 | 322 | 3.0 | 14.0 | 0.00 | 0.00 | 0.00 | 56 | 1019.9 |
| 20260507183009 | 55 | 311 | 3.0 | 14.0 | 0.00 | 0.00 | 0.00 | 58 | 1020.0 |
| 20260507182508 | 54 | 326 | 1.0 | 14.0 | 0.00 | 0.00 | 0.00 | 60 | 1019.9 |
| 20260507182008 | 54 | 322 | 9.0 | 10.0 | 0.00 | 0.00 | 0.00 | 59 | 1019.8 |
| 20260507181508 | 55 | 323 | 6.0 | 11.0 | 0.00 | 0.00 | 0.00 | 56 | 1019.9 |
| 20260507181008 | 54 | 315 | 0.0 | 13.0 | 0.00 | 0.00 | 0.00 | 56 | 1019.9 |
| 20260507180508 | 54 | 340 | 5.0 | 13.0 | 0.00 | 0.00 | 0.00 | 59 | 1020.0 |
| 20260507180008 | 54 | 340 | 3.0 | 13.0 | 0.00 | 0.00 | 0.00 | 58 | 1020.0 |
| 20260507175507 | 54 | 305 | 3.0 | 14.0 | 0.00 | 0.00 | 0.00 | 59 | 1020.3 |
| 20260507175008 | 54 | 302 | 1.0 | 14.0 | 0.00 | 0.00 | 0.00 | 59 | 1020.3 |
| 20260507174507 | 55 | 322 | 2.0 | 14.0 | 0.00 | 0.00 | 0.00 | 55 | 1020.3 |
| 20260507174007 | 56 | 314 | 9.0 | 14.0 | 0.00 | 0.00 | 0.00 | 54 | 1020.0 |
| 20260507173507 | 55 | 325 | 3.0 | 15.0 | 0.00 | 0.00 | 0.00 | 56 | 1020.3 |
| 20260507173007 | 54 | 309 | 0.0 | 15.0 | 0.00 | 0.00 | 0.00 | 59 | 1020.3 |
| 20260507172507 | 54 | 294 | 14.0 | 15.0 | 0.00 | 0.00 | 0.00 | 60 | 1020.3 |
| 20260507172006 | 54 | 316 | 7.0 | 14.0 | 0.00 | 0.00 | 0.00 | 56 | 1020.4 |
| 20260507171506 | 55 | 283 | 2.0 | 14.0 | 0.00 | 0.00 | 0.00 | 56 | 1020.4 |
| 20260507171006 | 55 | 291 | 2.0 | 11.0 | 0.00 | 0.00 | 0.00 | 54 | 1020.4 |
| 20260507170506 | 55 | 304 | 8.0 | 13.0 | 0.00 | 0.00 | 0.00 | 54 | 1020.5 |
| 20260507170006 | 55 | 318 | 4.0 | 13.0 | 0.00 | 0.00 | 0.00 | 59 | 1020.4 |
| 20260507165506 | 55 | 311 | 7.0 | 13.0 | 0.00 | 0.00 | 0.00 | 59 | 1020.5 |
| 20260507165006 | 55 | 274 | 0.0 | 8.0 | 0.00 | 0.00 | 0.00 | 58 | 1020.6 |
| 20260507164506 | 55 | 270 | 0.0 | 8.0 | 0.00 | 0.00 | 0.00 | 56 | 1020.5 |
| 20260507164006 | 55 | 304 | 0.0 | 8.0 | 0.00 | 0.00 | 0.00 | 58 | 1020.5 |
| 20260507163505 | 54 | 318 | 0.0 | 8.0 | 0.00 | 0.00 | 0.00 | 60 | 1020.4 |
| 20260507163005 | 53 | 307 | 1.0 | 8.0 | 0.00 | 0.00 | 0.00 | 62 | 1020.5 |
| 20260507162506 | 53 | 308 | 1.0 | 11.0 | 0.00 | 0.00 | 0.00 | 60 | 1020.4 |
| 20260507162006 | 53 | 271 | 0.0 | 15.0 | 0.00 | 0.00 | 0.00 | 60 | 1020.4 |
| 20260507161506 | 53 | 314 | 4.0 | 15.0 | 0.00 | 0.00 | 0.00 | 57 | 1020.5 |
| 20260507161005 | 53 | 277 | 4.0 | 15.0 | 0.00 | 0.00 | 0.00 | 58 | 1020.5 |
| 20260507160505 | 53 | 293 | 2.0 | 12.0 | 0.00 | 0.00 | 0.00 | 64 | 1020.5 |
| 20260507160005 | 53 | 316 | 7.0 | 12.0 | 0.00 | 0.00 | 0.00 | 58 | 1020.6 |
| 20260507155505 | 53 | 284 | 3.0 | 12.0 | 0.00 | 0.00 | 0.00 | 61 | 1020.6 |
| 20260507155004 | 52 | 328 | 0.0 | 12.0 | 0.00 | 0.00 | 0.00 | 61 | 1020.6 |
| 20260507154504 | 52 | 330 | 6.0 | 14.0 | 0.00 | 0.00 | 0.00 | 58 | 1020.5 |
| 20260507154004 | 52 | 332 | 6.0 | 14.0 | 0.00 | 0.00 | 0.00 | 58 | 1020.6 |
| 20260507153505 | 52 | 323 | 9.0 | 14.0 | 0.00 | 0.00 | 0.00 | 55 | 1020.5 |
| 20260507153006 | 52 | 315 | 9.0 | 12.0 | 0.00 | 0.00 | 0.00 | 60 | 1020.4 |
| 20260507152503 | 53 | 312 | 0.0 | 12.0 | 0.00 | 0.00 | 0.00 | 60 | 1020.5 |
| 20260507152003 | 53 | 308 | 5.0 | 9.0 | 0.00 | 0.00 | 0.00 | 60 | 1020.4 |
| 20260507151504 | 52 | 316 | 2.0 | 11.0 | 0.00 | 0.00 | 0.00 | 62 | 1020.5 |
| 20260507151003 | 52 | 290 | 0.0 | 11.0 | 0.00 | 0.00 | 0.00 | 61 | 1020.4 |
| 20260507150502 | 52 | 293 | 2.0 | 11.0 | 0.00 | 0.00 | 0.00 | 61 | 1020.5 |
| 20260507150002 | 51 | 325 | 7.0 | 11.0 | 0.00 | 0.00 | 0.00 | 60 | 1020.5 |
| 20260507145503 | 51 | 332 | 4.0 | 10.0 | 0.00 | 0.00 | 0.00 | 66 | 1020.5 |
| 20260507145003 | 51 | 298 | 2.0 | 10.0 | 0.00 | 0.00 | 0.00 | 64 | 1020.6 |
| 20260507144503 | 51 | 309 | 9.0 | 10.0 | 0.00 | 0.00 | 0.00 | 68 | 1020.6 |
| 20260507144003 | 51 | 312 | 5.0 | 5.0 | 0.00 | 0.00 | 0.00 | 68 | 1020.7 |
| 20260507143502 | 51 | 322 | 3.0 | 5.0 | 0.00 | 0.00 | 0.00 | 71 | 1020.6 |
| 20260507143032 | 50 | 302 | 2.0 | 5.0 | 0.00 | 0.00 | 0.00 | 72 | 1020.6 |
| 20260507142532 | 50 | 321 | 0.0 | 5.0 | 0.00 | 0.00 | 0.00 | 74 | 1020.6 |
| 20260507142031 | 50 | 276 | 0.0 | 8.0 | 0.00 | 0.03 | 0.00 | 74 | 1020.6 |
| 20260507141531 | 50 | 318 | 1.0 | 8.0 | 0.00 | 0.03 | 0.00 | 75 | 1020.6 |
| 20260507141031 | 49 | 311 | 0.0 | 8.0 | 0.00 | 0.03 | 0.00 | 74 | 1020.7 |
| 20260507140530 | 49 | 330 | 3.0 | 7.0 | 0.00 | 0.03 | 0.00 | 76 | 1020.7 |
| 20260507140031 | 49 | 312 | 0.0 | 7.0 | 0.00 | 0.03 | 0.00 | 77 | 1020.8 |
| 20260507135530 | 49 | 328 | 0.0 | 7.0 | 0.00 | 0.03 | 0.00 | 76 | 1020.8 |
| 20260507135031 | 48 | 312 | 7.0 | 7.0 | 0.00 | 0.03 | 0.00 | 77 | 1020.8 |
| 20260507134530 | 48 | 329 | 1.0 | 5.0 | 0.00 | 0.03 | 0.00 | 78 | 1020.9 |
| 20260507134030 | 48 | 302 | 0.0 | 0.0 | 0.00 | 0.03 | 0.00 | 78 | 1020.8 |
| 20260507133530 | 47 | 302 | 0.0 | 0.0 | 0.00 | 0.03 | 0.00 | 79 | 1020.9 |
| 20260507133031 | 47 | 302 | 0.0 | 2.0 | 0.00 | 0.03 | 0.00 | 79 | 1020.9 |
| 20260507132531 | 47 | 302 | 0.0 | 3.0 | 0.00 | 0.03 | 0.00 | 80 | 1020.9 |
| 20260507132030 | 47 | 302 | 0.0 | 5.0 | 0.00 | 0.03 | 0.00 | 80 | 1020.9 |
| 20260507131530 | 46 | 316 | 2.0 | 6.0 | 0.00 | 0.03 | 0.00 | 80 | 1020.9 |
| 20260507131029 | 46 | 322 | 0.0 | 6.0 | 0.00 | 0.03 | 0.00 | 79 | 1020.9 |
| 20260507130529 | 46 | 314 | 0.0 | 6.0 | 0.00 | 0.03 | 0.00 | 80 | 1020.9 |
| 20260507130029 | 46 | 314 | 0.0 | 3.0 | 0.00 | 0.03 | 0.00 | 80 | 1020.9 |